Regional Weather Roundup
Issued by NWS

Home | Current Version | Previous Version | Graphics & Text | Print | Product List | Glossary On
Versions: 1 2 3 4 5 6 7 8 9 10 11 12 13 14 15 16 17 18 19 20 21 22 23 24 25 26 27 28 29 30 31 32 33 34 35 36 37 38 39 40 41 42 43 44 45 46 47 48 49 50
000
ASUS43 KLOT 201308
RWRIL

ILLINOIS REGIONAL WEATHER ROUNDUP
NATIONAL WEATHER SERVICE CHICAGO/ROMEOVILLE IL
800 AM CDT SUN MAY 20 2018

NOTE: "FAIR" INDICATES FEW OR NO CLOUDS BELOW 12,000 FEET WITH NO
SIGNIFICANT WEATHER AND/OR OBSTRUCTIONS TO VISIBILITY.

* THESE STATIONS ARE NOT UNDER NWS QUALITY CONTROL. THEY ALSO MAY NOT
  REPORT WEATHER SUCH AS PRECIPITATION OR FOG.

ILZ001-002-007-009-015-016-024-201400-
NORTHWEST ILLINOIS

CITY           SKY/WX    TMP DP  RH WIND       PRES   REMARKS
MOLINE         CLOUDY    60  56  86 E16G25    30.07R FOG
SAVANNA*       CLOUDY    51  48  90 E10G17    30.12S THUNDER
$$

ILZ003-004-008-010-011-017-018-201400-
NORTH CENTRAL ILLINOIS

CITY           SKY/WX    TMP DP  RH WIND       PRES   REMARKS
ROCKFORD       LGT RAIN  47  43  86 NE15      30.18R FOG
FREEPORT*      CLOUDY    47  46  96 N9        30.19R VSB 3/4
ROCHELLE*      CLOUDY    49  46  86 NE13G21   30.14R
DE KALB*       CLOUDY    49  46  88 NE15      30.14S
PERU*          CLOUDY    56  49  77 E14       30.12R
$$

ILZ005-006-012>014-019>023-201400-
NORTHEAST ILLINOIS

CITY           SKY/WX    TMP DP  RH WIND       PRES   REMARKS
CHICAGO-OHARE  CLOUDY    45  41  86 NE20      30.15R
CHICAGO-MIDWAY CLOUDY    47  43  86 N12       30.15R
AURORA         CLOUDY    50  45  83 NE13      30.12S
LANSING*       CLOUDY    45  45 100 N8        30.15R FOG
JOLIET*        CLOUDY    51  47  88 NE12      30.13R
WAUKEGAN       CLOUDY    43  40  89 NE17G23   30.16S
DUPAGE AIRPORT CLOUDY    46  43  89 NE16      30.14R
KANKAKEE*      CLOUDY    51  49  95 NE8       30.12S
WHEELING       LGT RAIN  45  41  86 N17G25    30.17F
MORRIS*        CLOUDY    51  46  81 E7        30.12R
ROMEOVILLE*    CLOUDY    48  44  87 NE10      30.14R
NORTHERLY ISL    N/A     44  41  89 N15         N/A
$$

LMZ740>746-201400-
SOUTHERN LAKE MICHIGAN

STATION/POSITION SKY/WX   TEMP    WIND        PRES    VSBY  WAVE
                          AIR SEA DIR/SP/G                  HT/PER
                          (F)     (DEG/KT/KT) (MB)    (MI)  (FT/S)
WILMETTE HARBOR            42 47   10/ 16/ 21   N/A           5/ 5
HARRISON CRIB              44      10/ 20/ 22   N/A
BURNHAM HARBOR             44     350/ 12/ 16   N/A
CALUMET HARBOR             44     360/ 12/ 16 1020.4R
BURNS HARBOR               46     360/  7/  9 1021.0R
MICHIGAN CITY 6N           45 53   10/ 12/ 16   N/A           3/ 4
ST. JOSEPH                 50 54   30/ 10/ 12 1020.8          3/ 5
$$

ILZ025>027-034>036-040-047-049-050-058-095>099-201400-
WEST-CENTRAL ILLINOIS

CITY           SKY/WX    TMP DP  RH WIND       PRES   REMARKS
QUINCY         LGT RAIN  66  61  84 CALM      30.04S
GALESBURG*     PTSUNNY   66  62  86 E9        30.07R
MACOMB*        CLOUDY    68  61  77 S8        30.07R
JACKSONVILLE*  LGT RAIN  63  61  93 N6        30.04F
PITTSFIELD*    PTSUNNY   64  63  96 NE3       30.05R
$$

ILZ028>032-037-038-041>044-048-051>054-059>061-201400-
CENTRAL ILLINOIS

CITY           SKY/WX    TMP DP  RH WIND       PRES   REMARKS
PONTIAC        CLOUDY    56  53  92 E14       30.12R
BLOOMINGTON    CLOUDY    63  58  83 NE12      30.10R HAZE
DECATUR        CLOUDY    67  63  87 SW6       30.10R
PEORIA         CLOUDY    67  62  84 S6        30.08R HAZE
LACON*         CLOUDY    58  56  92 E9G16     30.09R FOG
SPRINGFIELD    LGT RAIN  67  63  87 SW7       30.10R FOG
TAYLORVILLE    TSTM      64  62  91 W8        30.12S
$$

ILZ033-039-045-046-055>057-062-063-201400-
EAST-CENTRAL ILLINOIS

CITY           SKY/WX    TMP DP  RH WIND       PRES   REMARKS
CHAMPAIGN      FAIR      68  64  87 E10       30.08R FOG
DANVILLE*      FAIR      65  62  89 E7        30.06S FOG
RANTOUL*       PTSUNNY   67  64  90 E9        30.09R FOG
MATTOON        FAIR      68  64  87 S7        30.08R
PARIS*         FAIR      70  64  81 CALM      30.09R
$$

ILZ079-100>102-201400-
SOUTHWEST ILLINOIS

CITY           SKY/WX    TMP DP  RH WIND       PRES   REMARKS
BELLEVILLE     CLOUDY    66  64  93 NE3       30.09S
CAHOKIA*       CLOUDY    66  63  90 SE3       30.08F
$$

ILZ064>066-069>071-074>076-080>082-084>086-088>090-092>094-201400-
SOUTH-CENTRAL ILLINOIS

CITY           SKY/WX    TMP DP  RH WIND       PRES   REMARKS
CARBONDALE     FAIR      69  64  84 S3        30.08S
CAIRO*         FAIR      69  65  88 N5        30.09R
EFFINGHAM*     PTSUNNY   68  66  92 SW12      30.16R THUNDER
MARION         PTSUNNY   68  66  94 S7        30.09S
CENTRALIA*     CLOUDY    67  64  87 W6        30.13R
SALEM*         CLOUDY    68  62  79 W12       30.14R
METROPOLIS*    FAIR      71  66  85 N5        30.10R HAZE
$$

ILZ067-068-072-073-078-083-087-091-201400-
SOUTHEAST ILLINOIS

CITY           SKY/WX    TMP DP  RH WIND       PRES   REMARKS
LAWRENCEVILLE  PTSUNNY   71  64  78 SW5       30.10R
FLORA*         FAIR      71  64  79 S5        30.09R
FAIRFIELD*     FAIR      71  63  76 SW3       30.09R
HARRISBURG*    FAIR      70  66  88 CALM      30.09R
ROBINSON*      FAIR      69  64  84 CALM      30.11R
CARMI*         FAIR      72  65  81 S3        30.09R
$$

ABBREVIATIONS USED IN REMARKS
   TC - TEMPERATURE IN CELSIUS
  WCI - WIND CHILL INDEX
   HX - HEAT INDEX
  VSB - VISIBILITY
$$





USA.gov is the U.S. government's official web portal to all federal, state and local government web resources and services.